User: anonymous   Login
Location: Unspecified
(0.0000°N, 0.0000°E)
Time: 04:37:09
(UTC+00:00)
Language:

LAPAN A3 - Orbit

View from above orbital plane
View from above orbital plane
View from above satellite
View from above satellite

Ground track
Ground track

The orbit data is extracted from the following two-line orbital elements,

1 41603U 16040E   17324.79249189  .00000235  00000-0  14319-4 0  9993
2 41603  97.4426  24.7405 0011856 247.0457 247.3147 15.19464993 78431
Epoch (UTC): 20 November 2017 19:01:11
Eccentricity: 0.0011856
inclination: 97.4426°
perigee height: 499 km
apogee height: 515 km
right ascension of ascending node: 24.7405°
argument of perigee: 247.0457°
revolutions per day: 15.19464993
mean anomaly at epoch: 247.3147°
orbit number at epoch: 7843

The dashed part of the orbit path shows where the satellite is in the earth's shadow,  

DLR